This is the latest recevied weather packets stored in our database for station/object KD8FRE. If no packets are shown the sender has not sent any weather packets the latest 1 day(s).
| Time | Temp. | Humidity | Pressure | Rain* | Wind** | Luminosity | Snow |
|---|---|---|---|---|---|---|---|
| 1777987452 | 12.78° C | 59% | 1005.3 hPa | 0 mm | 3.13 m/s, 300° | 125 W/m² | - |
| 1777987149 | 12.78° C | 59% | 1004.7 hPa | 0 mm | 3.13 m/s, 277° | 111 W/m² | - |
| 1777986846 | 13.33° C | 58% | 1005.3 hPa | 0 mm | 3.58 m/s, 295° | 66 W/m² | - |
| 1777986544 | 13.33° C | 59% | 1005 hPa | 0 mm | 2.68 m/s, 292° | 48 W/m² | - |
| 1777986241 | 13.33° C | 58% | 1004.9 hPa | 0 mm | 3.58 m/s, 293° | 77 W/m² | - |
| 1777985938 | 13.89° C | 57% | 1004.4 hPa | 0 mm | 3.13 m/s, 305° | 104 W/m² | - |
| 1777985636 | 13.89° C | 57% | 1004.1 hPa | 0 mm | 2.24 m/s, 281° | 215 W/m² | - |
| 1777985332 | 13.89° C | 58% | 1004.2 hPa | 0 mm | 2.24 m/s, 292° | 177 W/m² | - |
| 1777985029 | 13.89° C | 57% | 1004.2 hPa | 0 mm | 2.68 m/s, 261° | 182 W/m² | - |
| 1777984725 | 13.89° C | 57% | 1004.4 hPa | 0 mm | 2.68 m/s, 300° | 150 W/m² | - |
| 1777984422 | 13.33° C | 57% | 1004.2 hPa | 0 mm | 4.47 m/s, 285° | 147 W/m² | - |
| 1777984118 | 13.33° C | 57% | 1004.2 hPa | 0 mm | 2.68 m/s, 281° | 115 W/m² | - |
| 1777983816 | 13.33° C | 59% | 1004.1 hPa | 0 mm | 2.24 m/s, 282° | 116 W/m² | - |
| 1777983512 | 13.33° C | 58% | 1004.3 hPa | 0 mm | 2.68 m/s, 288° | 102 W/m² | - |
| 1777983209 | 13.89° C | 58% | 1003.9 hPa | 0 mm | 2.68 m/s, 278° | 112 W/m² | - |
| 1777982905 | 13.89° C | 60% | 1004.1 hPa | 0 mm | 3.58 m/s, 292° | 106 W/m² | - |
| 1777982601 | 13.33° C | 61% | 1003.9 hPa | 0 mm | 3.13 m/s, 292° | 98 W/m² | - |
| 1777982300 | 13.33° C | 62% | 1004.2 hPa | 0 mm | 3.13 m/s, 260° | 79 W/m² | - |
| 1777981997 | 13.33° C | 65% | 1004 hPa | 0 mm | 2.68 m/s, 275° | 70 W/m² | - |
| 1777981695 | 13.33° C | 64% | 1003.5 hPa | 0 mm | 1.34 m/s, 298° | 48 W/m² | - |
| 1777981391 | 13.33° C | 65% | 1003.8 hPa | 0 mm | 1.79 m/s, 283° | 57 W/m² | - |
| 1777981088 | 13.33° C | 66% | 1003.7 hPa | 0 mm | 1.34 m/s, 281° | 62 W/m² | - |
| 1777980784 | 13.33° C | 69% | 1004 hPa | 0 mm | 2.68 m/s, 286° | 42 W/m² | - |
| 1777980480 | 13.33° C | 70% | 1003.7 hPa | 0 mm | 1.79 m/s, 271° | 27 W/m² | - |
| 1777980178 | 13.33° C | 72% | 1003.9 hPa | 0 mm | 1.79 m/s, 280° | 17 W/m² | - |
* Rain latest hour (hover to see other rain measurements)
** Current wind speed in m/s (hover to see current wind gust speed)